Location: Muenchen
(48.1800°N, 11.5800°E)
Time: 01:51:02
(UTC+02:00)

ISS - Visible Passes

Search period start: 23 October 2014 00:00
Search period end: 01 November 2014 23:00
Orbit: 413 x 416 km, 51.6° (Epoch: 22 October)

Date Brightness Start Highest point End Pass type
(mag) Time Alt. Az. Time Alt. Az. Time Alt. Az.
23 Oct -3.2 18:39:20 10° WNW 18:42:40 67° NNE 18:46:00 10° ESE visible
23 Oct -1.8 20:16:14 10° W 20:19:13 30° SW 20:19:26 30° SSW visible
24 Oct -2.4 19:26:57 10° WNW 19:30:11 46° SSW 19:32:34 16° SE visible
25 Oct -3.0 18:37:44 10° WNW 18:41:04 70° SSW 18:44:23 10° ESE visible
25 Oct -0.5 20:15:26 10° WSW 20:17:16 14° SW 20:18:41 11° SSW visible
26 Oct -0.9 18:25:37 10° W 18:28:15 22° SW 18:30:54 10° SSE visible
27 Oct -1.5 17:36:06 10° W 17:39:09 33° SW 17:42:12 10° SSE visible
29 Oct -0.3 17:34:48 10° W 17:36:55 16° SW 17:39:00 10° S visible
